CAPE
34 19 0 0 0 0 0 0 36 148 205 252 296 287 202 295 258 157 103 3 0 0 0 0 0 0 0 0 0 0 0 2 0 2 12 31 30 20 13 20 13 13 12
0 0 0 0 0 0 0 17 152 144 117 209 170 110 80 266 140 91 41 0 1 0 2 1 0 0 0 0 0 0 0 17 15 14 9 6 13 26 18 19 20 22 23
0 0 0 0 0 3 121 125 90 104 47 104 131 107 145 257 145 47 25 3 3 2 2 1 0 0 0 0 0 0 13 17 9 12 32 7 8 11 7 10 12 5 4
0 0 1 1 1 60 110 80 74 30 26 0 66 20 186 225 103 34 4 1 1 1 1 0 0 0 0 0 0 0 0 24 4 0 0 26 26 23 5 5 15 6 13
0 0 0 0 0 50 91 63 25 38 2 0 0 116 264 162 63 21 0 0 0 0 0 0 0 0 0 0 0 0 0 19 15 0 1 0 14 42 18 15 4 2 5
1 0 0 1 0 25 50 35 30 2 0 0 0 187 149 119 43 16 0 0 0 0 0 0 0 0 0 0 0 0 0 1 0 0 0 2 5 16 41 27 14 8 7
0 0 0 0 0 22 33 22 14 0 0 0 0 66 106 68 37 0 0 0 0 0 0 0 0 0 0 0 0 0 0 0 0 0 0 2 3 13 31 43 29 19 14
0 0 0 4 0 13 22 18 0 0 0 0 0 40 43 46 14 0 0 0 0 0 0 0 0 0 0 0 0 0 0 0 0 0 0 18 23 8 15 44 48 29 17
0 0 0 2 0 1 3 0 0 0 0 0 0 0 20 22 0 0 0 0 0 0 0 0 0 0 0 0 0 0 0 1 0 0 0 17 33 31 44 45 38 37 30
0 0 9 0 0 0 0 0 0 0 0 0 0 33 32 27 0 0 0 0 0 0 0 0 0 0 0 0 0 0 0 0 0 0 1 0 39 45 40 32 38 35 33
0 0 14 9 0 0 0 0 0 0 0 0 0 0 0 0 0 0 0 0 0 0 0 0 0 0 0 0 0 0 0 0 0 0 1 20 11 32 28 18 23 42 33
0 2 8 6 0 0 0 0 0 0 0 0 0 0 3 12 1 0 0 0 0 0 0 0 0 0 0 0 0 0 0 0 0 0 0 26 36 8 10 12 9 23 23
2 11 1 1 0 0 0 0 0 0 0 0 0 8 25 0 0 0 0 0 0 0 0 0 0 0 0 0 0 0 1 0 0 0 0 0 8 26 11 7 5 7 2
0 2 1 0 0 0 0 0 0 0 0 0 1 13 0 0 0 0 0 0 0 0 0 0 0 0 0 0 0 0 0 0 0 0 0 0 0 1 20 4 12 9 4
0 0 6 0 0 0 0 0 0 0 0 0 0 0 0 0 0 2 0 0 0 0 0 0 0 0 0 0 0 0 0 0 0 0 0 0 0 0 0 17 15 3 2
0 0 1 0 0 0 0 0 0 0 0 0 0 0 0 0 0 0 0 0 0 0 0 0 0 0 0 0 0 0 0 0 0 0 0 0 0 0 0 1 10 3 5
0 0 0 0 0 0 0 0 0 0 0 0 0 0 0 0 0 0 0 0 0 0 0 0 0 0 0 0 0 0 0 0 0 0 0 0 0 0 0 0 1 2 2
0 0 0 0 0 0 0 0 0 0 0 0 0 0 0 0 0 0 0 0 0 0 0 0 0 0 0 0 0 0 0 0 0 0 0 0 0 0 0 0 0 0 0
0 0 0 0 0 0 0 0 0 0 0 0 0 0 0 0 0 0 0 0 0 0 0 0 0 0 0 0 0 0 0 0 0 0 0 0 0 0 0 0 0 0 0
0 0 0 0 0 0 0 0 0 0 0 0 0 0 0 0 0 0 0 0 0 0 0 0 0 0 0 0 0 0 0 0 0 0 0 0 0 0 0 0 0 0 0
0 0 0 0 0 0 0 0 0 0 0 0 0 0 0 0 0 0 0 0 0 0 0 0 0 0 0 0 0 0 0 0 0 0 0 0 0 0 0 0 0 0 0
0 0 0 0 0 0 0 0 0 0 0 0 0 0 0 0 0 0 0 0 0 0 0 0 0 0 0 0 0 0 0 0 0 0 0 0 0 0 0 0 0 0 0
5 0 0 0 0 0 0 0 0 0 0 0 0 0 0 0 0 0 0 0 0 0 0 0 0 0 0 0 0 0 0 0 0 0 0 0 0 0 0 0 0 0 0
43 0 0 0 0 0 0 0 0 0 0 0 0 0 0 0 0 0 0 0 0 0 0 0 0 0 0 0 0 0 0 0 0 0 0 0 0 0 0 0 0 0 0
159 6 0 0 0 0 0 0 0 0 0 0 0 0 0 0 0 0 0 0 0 0 0 0 0 0 0 0 0 0 0 0 0 0 0 0 0 0 0 0 0 0 0
285 120 0 0 0 0 0 0 0 0 0 0 0 0 0 0 0 0 0 0 0 0 0 0 0 0 0 0 0 0 0 0 0 0 0 0 0 0 0 0 0 0 0
CIN
-154 -151 -0 -0 -0 -0 -0 -0 -37 -9 -9 -14 -8 -19 -31 -12 -23 -46 -68 -21 -0 -0 -0 -0 -0 -0 -0 -0 -0 -0 -0 -0 -0 -0 -1 -0 -0 -0 -0 -0 -0 -0 -0
-0 -0 -0 -0 -0 -0 -0 -18 -21 -21 -31 -20 -39 -71 -69 -20 -48 -65 -64 -0 -0 -0 -0 -0 -0 -0 -0 -0 -0 -0 -0 -1 -2 -0 -1 -2 -1 -0 -0 -0 -0 -0 -0
-0 -0 -0 -0 -0 -5 -5 -29 -54 -47 -44 -37 -32 -56 -42 -23 -55 -111 -4 -0 -0 -0 -0 -0 -0 -0 -0 -0 -0 -0 -8 -14 -18 -7 -3 -2 -7 -0 -0 -1 -0 -1 -2
-0 -0 -0 -0 -0 -24 -10 -39 -51 -0 -3 -0 -83 -62 -29 -24 -63 -77 -2 -0 -0 -0 -0 -0 -0 -0 -0 -0 -0 -0 -0 -11 -12 -0 -0 -1 -1 -0 -3 -3 -1 -2 -0
-0 -0 -0 -0 -0 -71 -37 -50 -0 -1 -1 -0 -0 -48 -20 -39 -91 -5 -0 -0 -0 -0 -0 -0 -0 -0 -0 -0 -0 -0 -0 -20 -6 -0 -6 -0 -1 -0 -0 -1 -0 -1 -0
-6 -0 -0 -3 -0 -108 -120 -0 -2 -0 -0 -0 -0 -33 -39 -50 -1 -6 -0 -0 -0 -0 -0 -0 -0 -0 -0 -0 -0 -0 -0 -2 -0 -0 -0 -0 -1 -0 -1 -0 -0 -0 -0
-0 -0 -0 -1 -0 -0 -0 -0 -2 -0 -0 -0 -0 -44 -45 -0 -4 -0 -0 -0 -0 -0 -0 -0 -0 -0 -0 -0 -0 -0 -0 -0 -0 -0 -0 -1 -0 -2 -1 -0 -0 -0 -1
-0 -0 -0 -5 -0 -0 -0 -1 -0 -0 -0 -0 -0 -1 -2 -3 -5 -0 -0 -0 -0 -0 -0 -0 -0 -0 -0 -0 -0 -0 -0 -0 -0 -0 -0 -3 -1 -1 -1 -0 -0 -0 -0
-0 -0 -0 -0 -0 -1 -0 -0 -0 -0 -0 -0 -0 -0 -4 -8 -0 -0 -0 -0 -0 -0 -0 -0 -0 -0 -0 -0 -0 -0 -8 -1 -0 -0 -0 -9 -1 -0 -0 -0 -0 -0 -0
-0 -0 -9 -0 -0 -0 -0 -0 -0 -0 -0 -0 -0 -89 -10 -11 -0 -0 -0 -0 -0 -0 -0 -0 -0 -0 -0 -0 -0 -0 -0 -0 -0 -0 -1 -3 -0 -1 -0 -0 -0 -0 -0
-0 -0 -8 -1 -0 -0 -0 -0 -0 -0 -0 -0 -0 -0 -0 -0 -0 -0 -0 -0 -0 -0 -0 -0 -0 -0 -0 -0 -0 -0 -0 -0 -0 -0 -2 -0 -1 -0 -0 -0 -0 -0 -0
-0 -7 -0 -2 -0 -0 -0 -0 -0 -0 -0 -0 -0 -0 -3 -4 -0 -0 -0 -0 -0 -0 -0 -0 -0 -0 -0 -0 -0 -0 -0 -0 -0 -0 -0 -0 -0 -1 -2 -2 -2 -0 -0
-6 -7 -0 -3 -0 -0 -0 -0 -0 -0 -0 -0 -0 -30 -12 -4 -0 -0 -0 -0 -0 -0 -0 -0 -0 -0 -0 -0 -0 -0 -9 -0 -0 -0 -0 -0 -3 -1 -0 -0 -0 -0 -1
-1 -1 -2 -0 -0 -0 -0 -0 -0 -0 -0 -0 -3 -10 -0 -0 -0 -0 -0 -0 -3 -0 -0 -0 -0 -0 -0 -0 -0 -0 -0 -0 -0 -0 -0 -0 -0 -0 -2 -2 -0 -0 -0
-0 -0 -2 -0 -0 -0 -0 -0 -0 -0 -0 -0 -0 -0 -0 -0 -0 -3 -0 -1 -0 -0 -0 -0 -0 -0 -0 -0 -0 -0 -0 -0 -0 -0 -0 -0 -0 -0 -0 -1 -0 -0 -0
-1 -0 -1 -0 -0 -0 -0 -0 -0 -0 -0 -0 -0 -0 -0 -0 -0 -0 -0 -0 -0 -0 -0 -0 -0 -0 -0 -0 -0 -0 -0 -0 -0 -0 -0 -0 -0 -0 -0 -0 -0 -1 -1
-0 -0 -0 -0 -0 -0 -0 -0 -0 -0 -0 -0 -0 -0 -0 -0 -0 -0 -0 -0 -0 -0 -0 -0 -0 -0 -0 -0 -0 -0 -0 -0 -0 -0 -0 -0 -0 -0 -0 -0 -0 -1 -0
-0 -0 -0 -0 -0 -0 -0 -0 -0 -0 -0 -0 -0 -0 -0 -0 -0 -0 -0 -0 -0 -0 -0 -0 -0 -0 -0 -0 -0 -0 -0 -0 -0 -0 -0 -0 -0 -0 -0 -0 -0 -0 -0
-0 -0 -0 -0 -0 -0 -0 -0 -0 -0 -0 -0 -0 -0 -0 -0 -0 -0 -1 -0 -0 -0 -0 -0 -0 -0 -0 -0 -0 -0 -0 -0 -0 -0 -0 -0 -0 -0 -0 -0 -0 -0 -0
-0 -0 -0 -0 -0 -0 -0 -0 -0 -0 -0 -0 -0 -0 -0 -0 -0 -0 -1 -0 -0 -0 -0 -0 -0 -0 -0 -0 -0 -0 -0 -0 -0 -0 -0 -0 -0 -0 -0 -0 -0 -0 -0
-0 -0 -0 -0 -0 -0 -0 -0 -0 -0 -0 -0 -0 -0 -0 -0 -0 -0 -0 -0 -0 -0 -0 -0 -0 -0 -0 -0 -0 -0 -0 -0 -0 -0 -0 -0 -0 -0 -0 -0 -0 -0 -0
-0 -0 -0 -0 -0 -0 -0 -0 -0 -0 -0 -0 -0 -0 -0 -0 -0 -0 -0 -0 -0 -0 -0 -0 -0 -0 -0 -0 -0 -0 -0 -0 -0 -0 -0 -0 -0 -0 -0 -0 -0 -0 -0
-152 -0 -0 -0 -0 -0 -0 -0 -0 -0 -0 -0 -0 -0 -0 -0 -0 -0 -0 -0 -0 -0 -0 -0 -0 -0 -0 -0 -0 -0 -0 -0 -0 -0 -0 -0 -0 -0 -0 -0 -0 -0 -0
-261 -0 -0 -0 -0 -0 -0 -0 -0 -0 -0 -0 -0 -0 -0 -0 -0 -0 -0 -0 -0 -0 -0 -0 -0 -0 -0 -0 -0 -0 -0 -0 -0 -0 -0 -0 -0 -0 -0 -0 -0 -0 -0
-218 -101 -0 -0 -0 -0 -0 -0 -0 -0 -0 -0 -0 -0 -0 -0 -0 -0 -0 -0 -0 -0 -0 -0 -0 -0 -0 -0 -0 -0 -0 -0 -0 -0 -0 -0 -0 -0 -0 -0 -0 -0 -0
-173 -241 -0 -0 -0 -0 -0 -0 -0 -0 -0 -0 -0 -0 -0 -0 -0 -0 -0 -0 -0 -0 -0 -0 -0 -0 -0 -0 -0 -0 -0 -0 -0 -0 -0 -0 -0 -0 -0 -0 -0 -0 -0
Wind_Speed
19 18 14 15 17 18 19 18 15 13 17 17 17 18 18 18 18 18 18 19 20 21 22 23 24 25 26 26 26 25 25 26 27 26 26 26 26 25 25 25 24 24 24
20 18 14 14 15 17 18 17 16 17 17 17 17 17 18 19 19 19 19 20 21 22 23 25 25 26 27 26 25 25 25 26 27 28 26 25 25 25 25 25 24 23 24
19 18 14 14 13 15 16 17 17 17 17 17 17 16 16 17 18 19 20 21 22 23 24 25 26 26 26 25 24 25 25 26 27 27 27 25 25 26 25 24 23 22 23
20 19 15 13 13 13 15 14 15 16 16 17 17 17 17 18 18 19 20 21 22 23 24 25 26 26 25 25 25 25 25 26 28 27 26 27 26 26 25 23 22 23 23
19 18 17 13 13 13 14 14 14 14 15 16 16 15 16 19 19 19 20 21 22 23 24 25 26 26 25 25 25 26 27 21 27 28 25 26 25 25 23 22 22 21 20
20 18 17 15 13 13 13 13 13 14 14 15 15 15 19 19 19 19 20 21 22 23 25 26 26 26 26 25 25 26 28 28 28 29 27 25 24 22 22 20 18 18 17
19 18 17 15 14 13 13 13 13 13 14 14 14 16 19 20 19 19 20 21 22 23 25 26 27 27 26 26 25 26 27 29 29 28 26 25 23 20 18 17 16 16 18
18 17 17 15 14 14 13 12 12 13 13 14 14 16 18 18 19 19 20 21 22 24 25 26 27 27 27 26 26 26 28 28 29 28 26 24 23 19 17 16 15 17 17
18 17 16 15 14 14 13 12 12 13 13 13 14 15 17 17 18 18 19 21 22 23 24 26 26 27 27 26 26 26 27 28 28 27 25 24 23 20 20 16 16 17 18
18 18 17 15 15 14 13 13 13 12 12 13 14 16 17 17 18 18 19 20 21 22 23 24 25 26 27 26 25 24 25 26 27 26 24 22 21 21 21 19 18 19 20
16 15 15 16 15 14 14 13 13 13 13 14 16 17 18 17 17 17 18 19 20 21 22 23 23 23 24 26 26 25 24 25 26 25 23 21 19 20 20 19 20 20 20
14 14 14 15 15 14 14 15 14 15 17 18 18 20 17 17 16 16 17 18 18 19 20 20 20 20 19 19 24 25 23 24 25 24 23 21 20 19 19 19 19 20 20
13 13 14 14 15 14 13 15 15 17 18 20 18 17 15 15 14 15 15 16 16 17 17 18 19 19 24 25 24 24 22 21 22 23 22 20 20 19 19 20 19 20 20
13 13 14 14 15 12 14 15 18 16 17 16 13 13 12 12 13 14 14 13 13 14 14 17 22 22 22 23 23 23 24 21 21 21 22 20 19 19 20 20 20 21 21
12 13 16 16 16 13 14 16 16 14 14 15 11 12 15 12 12 11 13 14 16 17 19 19 19 20 19 22 22 22 21 22 18 20 20 20 19 19 19 20 20 21 21
13 15 18 17 17 15 16 14 14 15 15 11 12 12 13 11 11 12 12 14 16 18 20 21 22 20 20 20 22 22 22 21 22 18 18 19 18 19 18 19 20 21 22
13 15 17 18 17 16 11 13 13 14 12 12 13 13 12 10 10 11 11 13 15 17 18 19 19 19 20 20 20 20 19 20 21 21 17 18 18 18 18 19 19 20 22
13 15 17 17 17 16 11 12 14 16 13 14 12 12 12 11 11 10 11 13 14 15 17 18 18 19 20 20 20 20 20 19 19 18 20 18 16 17 17 18 19 19 21
13 15 16 17 17 17 12 13 13 12 15 14 12 12 12 11 11 11 10 12 13 14 16 16 18 19 19 20 20 21 21 20 19 19 19 18 19 17 16 18 18 18 21
13 15 16 16 17 18 14 13 12 12 14 13 11 9 11 10 10 11 10 11 12 14 14 16 17 19 20 20 20 20 19 19 18 19 18 16 18 19 16 16 16 18 20
13 14 17 17 18 19 16 17 15 14 16 12 11 10 11 11 11 13 10 11 12 13 13 15 16 17 18 17 16 15 16 16 16 17 17 19 19 17 19 20 15 16 19
13 14 17 18 19 20 16 17 15 13 15 11 10 10 11 12 11 13 10 11 12 12 12 13 14 14 16 15 16 14 16 14 14 14 16 17 17 18 14 17 20 22 21
12 15 18 20 20 22 19 19 16 14 14 14 12 10 11 13 13 13 12 11 12 10 11 11 12 11 13 15 16 18 19 19 15 14 15 15 17 16 17 17 18 19 21
12 15 18 19 20 22 21 19 18 16 15 15 14 11 11 14 14 14 12 11 10 9 10 10 10 10 11 13 16 16 18 18 19 18 13 15 15 14 14 19 17 17 19
13 15 17 19 19 20 22 19 18 15 15 13 13 12 11 13 14 13 13 11 8 9 8 8 7 8 11 11 13 15 16 15 16 18 19 15 12 12 13 14 17 20 19
13 14 15 18 19 19 21 21 18 18 14 13 14 12 12 11 12 14 12 10 8 8 6 6 7 7 8 10 13 14 14 15 16 15 17 17 16 12 12 13 14 15 20
Wind_Direction
78 80 53 47 51 55 55 49 29 11 36 34 34 33 34 35 39 38 35 31 28 27 27 27 28 31 33 35 30 25 24 32 30 26 22 20 19 18 16 14 15 14 13
82 75 53 49 49 50 52 49 38 40 37 37 36 36 36 43 45 45 41 36 35 35 36 37 37 35 34 33 27 20 21 30 28 30 25 19 19 17 18 13 13 13 14
73 76 56 48 40 42 46 52 55 49 42 40 40 35 33 45 50 49 44 41 42 41 40 39 36 35 32 25 17 16 20 35 28 23 24 26 24 23 19 16 10 10 10
81 77 65 50 39 29 44 42 45 42 40 42 44 42 45 55 55 51 46 43 44 43 40 36 32 29 24 20 17 12 15 38 38 29 22 23 25 20 20 18 13 14 13
84 75 71 50 35 28 38 41 39 36 38 39 41 40 55 65 61 55 48 46 46 43 39 35 31 27 21 19 16 12 8 39 29 28 19 15 15 16 21 20 16 12 9
78 75 70 56 37 31 33 41 41 36 34 39 38 39 73 71 64 56 51 49 47 43 39 35 31 27 23 19 14 11 15 35 28 27 26 18 16 14 13 14 8 11 6
76 73 70 61 44 36 42 41 42 41 42 45 44 51 73 71 65 57 53 50 46 42 39 36 32 29 28 25 19 14 18 29 32 31 24 18 17 6 2 9 8 7 12
79 70 75 63 50 42 42 46 45 46 49 52 53 57 72 70 65 60 56 52 49 45 42 39 35 32 31 28 24 20 18 32 31 32 30 13 17 7 3 2 1 8 8
75 73 78 68 55 44 51 49 48 52 56 60 61 65 73 71 67 62 59 55 50 47 44 42 39 38 35 29 23 21 19 40 33 24 23 13 19 14 14 359 1 4 10
74 78 85 77 70 61 55 57 57 56 62 67 70 76 78 75 69 65 59 54 51 48 47 46 47 48 46 39 33 26 22 30 29 27 19 11 10 16 16 10 13 16 18
74 78 92 86 76 74 67 66 66 68 70 79 84 88 88 82 73 60 59 55 53 52 51 52 51 50 46 40 27 25 34 32 28 25 7 7 7 7 9 3 6 9 10
77 85 94 94 83 85 76 86 82 86 93 96 97 104 91 90 79 61 59 57 56 57 55 55 52 48 45 45 30 28 41 40 33 28 9 2 357 4 2 358 358 359 0
87 92 106 97 98 92 79 88 91 100 105 107 102 107 75 79 68 64 65 61 62 62 56 53 51 46 18 17 18 14 30 39 32 29 13 359 355 6 3 2 357 357 352
100 100 117 101 113 87 95 96 109 103 110 113 92 77 77 76 75 85 85 80 76 68 55 54 24 31 35 31 31 22 11 34 39 36 21 358 350 352 2 357 4 360 356
107 109 127 110 119 100 102 110 108 100 101 111 73 75 102 89 91 88 58 41 29 35 31 32 40 36 44 34 32 34 32 19 39 34 31 8 355 352 351 4 3 0 357
110 116 119 117 125 113 116 102 100 106 115 87 95 98 103 82 71 40 38 33 27 17 15 18 20 35 32 35 22 20 20 24 19 34 34 12 0 358 356 356 357 359 359
108 114 118 122 126 125 94 103 104 114 98 102 109 113 99 74 70 68 55 37 27 25 37 42 45 48 45 41 38 38 37 30 26 17 28 21 2 360 3 358 355 353 352
111 119 122 127 128 130 106 110 115 126 109 123 111 111 111 80 95 67 49 39 41 54 43 41 47 51 46 42 40 34 26 23 19 20 3 6 12 6 357 358 355 354 353
116 123 127 129 131 135 115 120 121 115 128 125 109 112 114 103 98 91 60 47 58 50 51 59 53 49 53 45 41 31 26 27 23 17 15 13 342 354 360 355 355 351 352
120 126 132 130 134 139 125 123 120 115 132 120 108 108 119 108 103 111 59 64 85 66 69 62 60 54 50 49 48 48 45 38 32 24 20 22 12 347 357 355 352 349 351
125 131 139 138 139 142 135 138 132 129 140 122 119 109 120 125 115 129 74 79 104 82 78 70 68 75 70 72 67 63 56 51 45 35 30 11 9 10 352 346 355 354 354
135 137 144 145 144 149 139 144 135 126 141 121 119 109 121 133 125 132 101 102 118 77 72 87 92 88 72 72 61 60 53 58 50 46 35 29 18 3 11 356 347 333 337
146 146 149 150 150 154 147 148 137 132 135 138 138 118 128 140 137 140 134 112 117 86 90 97 100 91 58 57 56 52 46 40 52 48 36 35 29 23 4 357 353 346 341
154 150 152 153 152 156 155 152 150 144 143 144 143 130 133 146 146 150 140 128 115 105 104 102 100 82 53 42 41 48 41 39 35 35 47 34 34 29 25 0 2 355 349
159 154 155 157 156 158 162 156 155 148 147 137 143 138 136 148 152 150 150 141 122 123 110 98 84 59 36 45 39 38 37 39 41 33 27 34 37 42 37 27 3 348 355
166 160 159 161 162 162 166 167 161 160 148 143 146 141 143 147 154 159 155 148 135 137 111 90 68 62 48 41 27 29 32 32 33 30 23 23 29 36 40 35 22 11 353